Tracking 28790 objects as of 19-Apr-2024
HD Live streaming from Space Station
objects crossing your sky now

COSMOS 1823 DEB

Track COSMOS 1823 DEB now!
10-day predictions


NORAD ID: 39828
Int'l Code: 1987-020FC
Perigee: 1,583.3 km
Apogee: 1,656.6 km
Inclination: 74.3 °
Period: 118.5 minutes
Semi major axis: 7990 km
RCS: 0.016 m2 (small)
Launch date: February 20, 1987
Source: Commonwealth of Independent States (former USSR) (CIS)
Launch site: PLESETSK MISSILE AND SPACE COMPLEX (PKMTR)

Note: This is SATELLITE DEBRIS
Your satellite tracking list
Your tracking list is empty




NASA's NSSDC Master Catalog

Two Line Element Set (TLE):
1 39828U 87020FC  24091.83321598  .00001846  00000-0  19000-1 0  9992
2 39828  74.2875 294.5791 0045820 230.2142 129.4851 12.15361135564817
Source of the keplerian elements: AFSPC